Location: Rogalle
(42.8890°N, 1.1916°E)
Time: 16:36:41
(UTC+00:00)

SL-16 R/B - Pass Details

Date: 13 December 2025
Orbit: 841 x 845 km, 71.0° (Epoch: 16 January)

Event Time Altitude Azimuth Distance (km) Brightness Sun altitude
Rises 19:04:45 0° 204° (SSW) 3,383 5.7 -29.0°
Reaches altitude 10° 19:07:10 10° 204° (SSW) 2,452 4.9 -29.4°
Enters shadow 19:11:40 59° 210° (SSW) 972 2.5 -30.3°
